When you browse on this site, cookies collect data to enhance your experience and personalize the content and advertising you see.
Visit our Privacy Policy to learn more. By continuing to use the site, you agree to this use of cookies and data.

Hourly Weather Struzhki

Today, 14 July, Tuesday

Time Temperature Precipitation Wind Pressure Humidity
00:00 +9°C° 0 mm 2 mps 738 mmHg 88%
01:00 +9°C° 0 mm 2 mps 738 mmHg 90%
02:00 +9°C° 0 mm 2 mps 739 mmHg 92%
03:00 +9°C° 0 mm 2 mps 739 mmHg 91%
04:00 +9°C° 0 mm 2 mps 738 mmHg 90%
05:00 +9°C° 0 mm 2 mps 738 mmHg 88%
06:00 +12°C° 0 mm 2 mps 738 mmHg 80%
07:00 +14°C° 0 mm 2 mps 739 mmHg 72%
08:00 +16°C° 0 mm 3 mps 739 mmHg 63%
09:00 +17°C° 0 mm 3 mps 739 mmHg 58%
10:00 +18°C° 0 mm 3 mps 739 mmHg 53%
11:00 +19°C° 0 mm 3 mps 738 mmHg 49%
12:00 +20°C° 0 mm 3 mps 738 mmHg 47%
13:00 +20°C° 0 mm 3 mps 738 mmHg 46%
14:00 +21°C° 0 mm 3 mps 738 mmHg 44%
15:00 +21°C° 0 mm 3 mps 738 mmHg 46%
16:00 +20°C° 0 mm 3 mps 738 mmHg 48%
17:00 +20°C° 0 mm 3 mps 737 mmHg 50%
18:00 +19°C° 0 mm 2 mps 737 mmHg 58%
19:00 +17°C° 0 mm 2 mps 737 mmHg 66%
20:00 +15°C° 0 mm 2 mps 737 mmHg 74%
21:00 +14°C° 0 mm 2 mps 737 mmHg 76%
22:00 +14°C° 0 mm 2 mps 737 mmHg 79%
23:00 +13°C° 0 mm 2 mps 737 mmHg 81%

Tomorrow, 15 July, Wednesday

Time Temperature Precipitation Wind Pressure Humidity
00:00 +12°C° 0 mm 2 mps 737 mmHg 80%
01:00 +12°C° 0 mm 2 mps 737 mmHg 79%
02:00 +10°C° 0 mm 2 mps 737 mmHg 78%
03:00 +10°C° 0 mm 3 mps 737 mmHg 78%
04:00 +10°C° 0 mm 3 mps 737 mmHg 77%
05:00 +10°C° 0 mm 3 mps 737 mmHg 77%
06:00 +11°C° 0 mm 3 mps 737 mmHg 74%
07:00 +13°C° 0 mm 3 mps 737 mmHg 70%
08:00 +14°C° 0 mm 3 mps 737 mmHg 66%
09:00 +15°C° 0 mm 4 mps 737 mmHg 61%
10:00 +18°C° 0 mm 4 mps 737 mmHg 56%
11:00 +19°C° 0 mm 4 mps 737 mmHg 51%
12:00 +19°C° 0 mm 4 mps 737 mmHg 50%
13:00 +20°C° 0 mm 4 mps 737 mmHg 49%
14:00 +20°C° 0 mm 4 mps 737 mmHg 48%
15:00 +20°C° 0 mm 4 mps 737 mmHg 50%
16:00 +20°C° 0 mm 3 mps 737 mmHg 52%
17:00 +20°C° 0 mm 3 mps 737 mmHg 53%
18:00 +19°C° 0 mm 2 mps 737 mmHg 59%
19:00 +17°C° 0 mm 2 mps 737 mmHg 64%
20:00 +16°C° 0 mm 2 mps 737 mmHg 69%
21:00 +15°C° 0 mm 2 mps 737 mmHg 72%
22:00 +14°C° 0 mm 2 mps 737 mmHg 75%
23:00 +13°C° 0 mm 2 mps 737 mmHg 78%

Day after tomorrow, 16 July, Thursday

Time Temperature Precipitation Wind Pressure Humidity
00:00 +13°C° 0 mm 2 mps 737 mmHg 80%
01:00 +12°C° 0 mm 2 mps 737 mmHg 83%
02:00 +12°C° 0 mm 2 mps 737 mmHg 85%
03:00 +12°C° 0 mm 2 mps 737 mmHg 85%
04:00 +12°C° 0 mm 2 mps 737 mmHg 85%
05:00 +12°C° 0 mm 2 mps 737 mmHg 85%
06:00 +14°C° 0 mm 2 mps 737 mmHg 78%
07:00 +15°C° 0 mm 2 mps 737 mmHg 72%
08:00 +17°C° 0 mm 2 mps 737 mmHg 65%
09:00 +18°C° 0 mm 2 mps 737 mmHg 60%
10:00 +19°C° 0 mm 2 mps 736 mmHg 56%
11:00 +21°C° 0 mm 2 mps 736 mmHg 51%
12:00 +21°C° 0 mm 2 mps 736 mmHg 50%
13:00 +22°C° 0 mm 3 mps 736 mmHg 49%
14:00 +22°C° 0 mm 3 mps 736 mmHg 47%
15:00 +22°C° 0 mm 3 mps 736 mmHg 49%
16:00 +23°C° 0 mm 2 mps 736 mmHg 51%
17:00 +23°C° 0 mm 2 mps 736 mmHg 52%
18:00 +20°C° 0 mm 2 mps 736 mmHg 61%
19:00 +19°C° 0 mm 2 mps 736 mmHg 69%
20:00 +18°C° 0 mm 1 mps 736 mmHg 77%
21:00 +16°C° 0 mm 1 mps 736 mmHg 80%
22:00 +15°C° 0 mm 1 mps 736 mmHg 83%
23:00 +13°C° 0 mm 1 mps 737 mmHg 86%

17 July, Friday

Time Temperature Precipitation Wind Pressure Humidity
00:00 +13°C° 0 mm 1 mps 737 mmHg 89%
01:00 +12°C° 0 mm 1 mps 737 mmHg 92%
02:00 +11°C° 0 mm 1 mps 737 mmHg 94%
03:00 +12°C° 0 mm 1 mps 737 mmHg 93%
04:00 +12°C° 0 mm 1 mps 737 mmHg 92%
05:00 +12°C° 0 mm 1 mps 737 mmHg 91%
06:00 +14°C° 0 mm 1 mps 737 mmHg 81%
07:00 +16°C° 0 mm 1 mps 738 mmHg 71%
08:00 +19°C° 0 mm 1 mps 738 mmHg 61%
09:00 +19°C° 0 mm 2 mps 738 mmHg 55%
10:00 +20°C° 0 mm 2 mps 738 mmHg 49%
11:00 +23°C° 0 mm 2 mps 738 mmHg 44%
12:00 +23°C° 0 mm 2 mps 738 mmHg 42%
13:00 +24°C° 0 mm 2 mps 738 mmHg 39%
14:00 +24°C° 0 mm 2 mps 738 mmHg 37%
15:00 +24°C° 0 mm 2 mps 738 mmHg 39%
16:00 +24°C° 0 mm 2 mps 738 mmHg 40%
17:00 +24°C° 0 mm 2 mps 738 mmHg 42%
18:00 +22°C° 0 mm 1 mps 738 mmHg 51%
19:00 +19°C° 0 mm 1 mps 738 mmHg 60%
20:00 +16°C° 0 mm 1 mps 738 mmHg 69%
21:00 +14°C° 0 mm 0 mps 739 mmHg 71%
22:00 +13°C° 0 mm 0 mps 739 mmHg 74%
23:00 +12°C° 0 mm 0 mps 739 mmHg 76%

18 July, Saturday

Time Temperature Precipitation Wind Pressure Humidity
00:00 +11°C° 0 mm 0 mps 739 mmHg 76%
01:00 +11°C° 0 mm 0 mps 740 mmHg 77%
02:00 +12°C° 0 mm 1 mps 740 mmHg 78%
03:00 +12°C° 0 mm 1 mps 740 mmHg 78%
04:00 +12°C° 0 mm 1 mps 740 mmHg 79%
05:00 +12°C° 0 mm 1 mps 740 mmHg 79%
06:00 +14°C° 0 mm 1 mps 741 mmHg 72%
07:00 +18°C° 0 mm 1 mps 741 mmHg 64%
08:00 +20°C° 0 mm 1 mps 741 mmHg 57%
09:00 +21°C° 0 mm 1 mps 741 mmHg 51%
10:00 +23°C° 0 mm 1 mps 741 mmHg 46%
11:00 +24°C° 0 mm 1 mps 741 mmHg 40%
12:00 +24°C° 0 mm 1 mps 741 mmHg 39%
13:00 +25°C° 0 mm 2 mps 741 mmHg 37%
14:00 +25°C° 0 mm 2 mps 741 mmHg 36%
15:00 +25°C° 0 mm 2 mps 741 mmHg 39%
16:00 +25°C° 0 mm 2 mps 741 mmHg 42%
17:00 +25°C° 0 mm 1 mps 741 mmHg 45%
18:00 +22°C° 0 mm 1 mps 741 mmHg 53%
19:00 +20°C° 0 mm 1 mps 741 mmHg 62%
20:00 +18°C° 0 mm 1 mps 741 mmHg 70%
21:00 +16°C° 0 mm 1 mps 741 mmHg 70%
22:00 +15°C° 0 mm 1 mps 741 mmHg 70%
23:00 +14°C° 0 mm 1 mps 741 mmHg 70%

19 July, Sunday

Time Temperature Precipitation Wind Pressure Humidity
00:00 +14°C° 0 mm 1 mps 742 mmHg 71%
01:00 +13°C° 0 mm 1 mps 742 mmHg 71%
02:00 +12°C° 0 mm 0 mps 742 mmHg 72%
03:00 +12°C° 0 mm 0 mps 742 mmHg 72%
04:00 +13°C° 0 mm 1 mps 742 mmHg 73%
05:00 +14°C° 0 mm 1 mps 742 mmHg 73%
06:00 +16°C° 0 mm 1 mps 742 mmHg 67%
07:00 +19°C° 0 mm 1 mps 742 mmHg 60%
08:00 +19°C° 0 mm 0 mps 742 mmHg 54%
09:00 +23°C° 0 mm 1 mps 742 mmHg 49%
10:00 +24°C° 0 mm 1 mps 742 mmHg 44%
11:00 +25°C° 0 mm 1 mps 742 mmHg 39%
12:00 +26°C° 0 mm 1 mps 742 mmHg 37%
13:00 +26°C° 0 mm 2 mps 742 mmHg 36%
14:00 +27°C° 0 mm 2 mps 742 mmHg 35%
15:00 +26°C° 0 mm 2 mps 741 mmHg 38%
16:00 +26°C° 0 mm 2 mps 741 mmHg 40%
17:00 +25°C° 0 mm 2 mps 741 mmHg 43%
18:00 +23°C° 0 mm 2 mps 741 mmHg 51%
19:00 +20°C° 0 mm 2 mps 741 mmHg 59%
20:00 +19°C° 0 mm 1 mps 740 mmHg 67%
21:00 +18°C° 0 mm 1 mps 740 mmHg 68%
22:00 +16°C° 0 mm 1 mps 741 mmHg 68%
23:00 +15°C° 0 mm 1 mps 741 mmHg 69%
Show more